Vorticity
nan nan nan nan nan nan nan nan nan nan nan nan nan nan nan nan nan nan nan nan nan nan nan nan nan nan nan nan nan nan nan nan nan nan nan nan nan nan nan nan nan nan nan nan nan nan nan nan nan nan nan nan nan nan
nan 11 15 20 20 18 16 19 19 23 23 19 18 16 19 19 13 -6 0 13 6 6 11 18 13 9 18 16 11 10 8 13 12 9 10 10 10 19 11 3 11 13 14 12 10 1 2 2 15 5 9 19 18 nan
nan 16 20 21 18 21 18 19 32 33 22 17 22 28 26 20 13 -5 -2 11 10 8 5 14 13 13 13 14 12 9 10 13 13 10 11 12 13 8 12 14 8 10 14 9 7 11 4 4 8 8 9 9 18 nan
nan 21 18 17 18 18 18 26 36 35 30 23 23 28 25 23 10 -3 1 8 6 10 13 10 11 13 11 9 10 11 10 13 11 9 11 10 12 10 11 14 8 11 11 6 1 6 14 15 8 6 5 2 8 nan
nan 20 16 16 18 18 18 23 27 21 23 22 20 21 19 18 2 -6 11 10 5 9 12 11 14 16 14 10 12 8 11 13 10 11 11 11 4 9 13 14 13 12 8 11 12 12 11 12 13 8 1 10 13 nan
nan 17 14 14 14 15 17 17 21 22 18 16 20 19 10 1 -2 1 12 12 9 6 12 13 13 13 10 13 10 9 8 7 12 11 8 11 13 12 11 11 10 9 10 13 12 15 17 15 7 12 17 11 12 nan
nan 15 13 14 11 15 15 15 18 17 17 16 16 17 5 -4 -1 10 15 17 10 8 8 9 9 9 16 13 9 12 11 9 9 11 11 11 10 10 12 2 0 10 14 12 13 17 13 13 13 12 14 11 13 nan
nan 17 15 14 13 16 17 17 13 13 15 15 10 6 2 2 4 6 15 21 9 9 12 12 9 7 12 14 11 11 11 11 8 9 13 15 12 8 0 1 7 10 13 6 10 21 16 9 8 13 13 12 14 nan
nan 20 13 8 18 21 19 18 5 6 5 2 -0 0 6 7 13 13 8 7 14 11 10 10 13 7 10 15 9 12 12 10 12 9 11 10 12 9 4 8 10 9 10 10 16 14 11 14 17 15 10 16 18 nan
nan 20 14 8 13 16 13 8 7 4 -5 -5 3 8 10 10 10 8 12 9 10 11 13 11 11 12 11 12 13 11 12 11 13 9 11 10 10 3 6 11 11 10 11 18 18 13 13 14 16 13 15 17 15 nan
nan 15 12 13 10 8 5 1 -0 -2 7 13 11 12 9 11 12 13 13 12 9 10 13 12 10 10 11 11 11 11 12 10 11 14 11 8 6 2 9 13 12 13 16 17 18 16 17 17 13 12 10 14 13 nan
nan 9 9 6 4 0 2 6 10 12 13 14 13 9 7 12 14 13 11 10 15 10 10 14 11 10 10 11 11 12 12 13 11 11 11 9 5 8 11 11 14 17 16 16 16 15 15 16 16 14 12 10 13 nan
nan 5 6 6 7 8 9 14 11 8 14 11 8 11 11 12 12 13 11 9 8 9 10 12 15 11 12 11 11 15 12 9 10 13 11 6 8 12 13 12 12 14 14 13 12 13 13 12 14 16 14 12 12 nan
nan 6 6 8 8 9 12 12 18 16 13 14 9 11 13 12 11 9 10 12 11 9 12 14 13 11 12 12 10 12 12 12 12 11 9 8 11 14 14 13 11 11 12 12 11 12 11 11 11 12 13 14 11 nan
nan 4 0 4 10 10 12 12 15 16 11 10 12 12 9 12 10 10 12 12 11 11 13 13 13 14 15 8 10 11 11 12 12 14 10 11 12 12 12 13 13 12 11 10 11 11 10 11 11 11 12 13 11 nan
nan 1 2 7 9 18 13 7 12 15 12 9 10 11 10 11 10 12 13 12 9 14 15 10 13 12 11 12 12 11 11 11 14 12 12 11 10 13 13 13 12 12 12 11 11 11 10 10 11 10 11 10 11 nan
nan 10 10 2 2 6 18 17 10 12 13 11 13 12 15 11 9 10 11 13 14 14 13 12 10 14 12 11 11 13 15 15 13 11 11 13 13 12 10 11 11 12 12 12 12 11 11 10 9 7 8 9 10 nan
nan 9 8 9 15 12 7 12 13 10 11 12 10 11 15 12 13 14 11 13 19 16 13 13 9 11 15 12 15 15 12 9 12 13 12 10 10 12 12 12 12 11 11 11 10 9 10 13 11 9 9 11 9 nan
nan 6 5 13 17 16 11 11 12 12 10 11 9 16 16 10 11 15 16 15 15 17 15 9 11 13 12 16 18 13 11 11 10 9 8 10 13 13 11 8 9 10 10 11 12 12 8 10 12 12 11 11 11 nan
nan 5 10 17 19 17 11 12 13 11 13 14 8 7 12 13 14 14 15 15 15 13 12 14 14 15 13 16 17 15 13 12 11 9 9 9 9 9 11 12 10 9 8 8 9 12 13 9 9 11 10 10 11 nan
nan 8 13 18 16 14 14 11 13 14 13 11 11 8 7 4 8 13 14 14 16 18 14 12 12 11 13 16 14 13 14 16 15 13 13 11 11 10 9 10 11 11 10 10 9 7 10 12 10 12 13 10 10 nan
nan 12 15 13 14 11 8 14 18 11 13 12 8 10 8 8 6 7 10 12 12 12 15 13 13 14 12 13 13 13 13 12 12 12 11 12 12 11 11 12 10 11 12 11 10 11 10 10 11 11 11 14 13 nan
nan 15 14 13 12 13 12 12 10 13 15 10 10 12 12 12 12 11 8 12 12 8 11 11 10 13 12 11 10 10 12 11 10 9 8 10 11 11 11 11 13 13 11 11 12 12 9 11 13 12 10 12 12 nan
nan 13 14 14 12 12 11 13 13 12 11 13 13 11 12 16 12 11 11 11 10 15 15 11 8 7 7 8 10 11 11 10 9 13 16 13 10 10 11 10 10 12 13 14 11 11 10 10 12 13 11 10 13 nan
nan 11 15 12 12 14 12 12 13 13 12 13 13 12 13 13 14 13 12 9 10 11 10 11 13 13 11 8 8 9 12 14 12 10 10 16 18 11 8 9 9 10 12 11 13 13 11 11 13 14 12 10 11 nan
nan 13 15 12 13 14 13 13 13 14 12 11 12 11 12 13 12 13 14 11 10 10 14 16 11 9 10 13 11 8 13 15 11 9 10 12 15 15 13 12 9 6 11 14 12 11 13 12 11 11 13 11 10 nan
nan 13 12 12 17 12 12 11 12 12 12 12 12 13 14 12 12 12 11 13 13 10 12 15 17 15 13 11 11 11 11 12 14 13 11 10 11 14 15 12 11 11 10 11 12 13 12 11 12 13 11 12 12 nan
nan 12 12 13 13 16 16 9 10 12 10 11 13 15 15 12 11 14 14 13 11 12 11 11 10 11 11 12 13 13 13 13 15 12 11 10 11 12 12 11 12 14 14 13 11 11 10 11 10 11 10 11 11 nan
nan 13 9 13 13 11 11 16 15 10 12 18 15 14 13 12 15 14 13 13 12 11 10 10 11 11 9 10 11 12 11 14 15 12 14 13 8 8 13 12 12 11 11 10 13 19 14 9 12 15 11 10 12 nan
nan 15 10 10 13 10 12 14 16 14 16 19 14 12 10 12 13 13 14 13 12 13 14 12 13 14 15 13 8 8 12 13 15 14 11 12 13 12 11 10 12 11 11 13 12 9 12 13 12 14 15 14 14 nan
nan 11 11 14 13 13 13 9 8 11 14 13 13 13 12 9 7 12 14 14 11 12 11 11 12 13 13 12 16 14 11 13 13 10 12 12 13 14 12 11 13 13 13 12 11 12 12 12 12 9 10 12 12 nan
nan 19 14 12 13 14 11 10 9 12 11 9 12 13 12 12 12 9 9 15 14 11 13 16 12 12 14 13 12 12 13 13 11 12 13 15 12 11 11 12 13 13 13 12 12 13 12 13 13 13 12 11 12 nan
nan nan nan nan nan nan nan nan nan nan nan nan nan nan nan nan nan nan nan nan nan nan nan nan nan nan nan nan nan nan nan nan nan nan nan nan nan nan nan nan nan nan nan nan nan nan nan nan nan nan nan nan nan nan
CAPE
64 52 45 38 35 39 49 48 44 41 45 60 72 75 73 62 59 73 30 2 35 7 11 32 71 41 0 2 0 0 16 21 7 1 2 25 37 12 7 14 1 0 0 4 0 20 2 0 0 24 0 0 1 11
52 35 20 18 21 37 45 39 22 28 38 38 44 57 107 98 55 73 11 10 6 79 53 41 15 107 12 0 0 14 0 22 0 0 0 0 34 5 0 2 142 17 0 1 12 0 0 0 0 0 3 39 56 8
31 30 29 49 45 38 34 26 18 36 41 36 41 149 166 155 81 63 12 14 14 6 31 2 92 93 222 163 271 284 6 120 25 4 14 36 24 1 33 0 70 51 18 0 0 0 0 0 0 0 6 12 12 0
16 11 41 25 27 11 24 20 6 13 30 27 55 75 89 55 62 40 11 3 50 63 1 5 9 19 153 244 390 291 190 274 27 1 0 70 30 33 22 7 41 54 16 10 0 0 0 0 0 3 1 3 0 0
8 22 18 19 27 17 20 22 25 28 52 48 44 47 53 52 71 18 26 0 25 1 0 54 40 63 184 79 203 158 95 243 35 62 49 0 6 36 54 35 20 5 2 0 0 17 7 0 22 0 0 1 0 0
18 22 14 17 24 18 14 25 27 37 77 47 50 47 60 49 70 61 5 60 18 12 28 3 9 22 1 3 156 140 105 96 28 0 2 0 156 113 29 23 53 47 0 1 21 35 4 0 26 64 49 22 0 0
21 24 15 19 14 19 21 12 32 40 29 28 37 37 46 28 17 13 0 0 0 1 2 1 2 0 0 15 19 31 65 35 15 37 46 2 2 48 11 21 0 0 0 0 0 1 8 1 0 0 0 0 0 0
8 19 15 9 2 0 8 15 15 25 29 36 22 41 14 6 12 1 0 1 19 0 0 0 2 0 0 11 21 28 22 43 86 7 42 45 4 21 7 4 2 0 0 0 0 0 0 0 0 0 0 0 0 0
0 9 9 0 1 5 5 26 33 36 36 28 14 1 2 8 5 0 1 3 6 0 0 0 1 0 0 8 25 30 23 31 39 32 25 34 0 4 19 8 9 5 4 2 0 0 0 0 0 0 0 0 0 0
0 1 1 4 1 6 3 9 27 20 11 11 14 2 4 10 0 0 3 0 0 0 0 0 0 0 3 0 34 7 3 17 14 16 14 7 10 33 13 10 7 5 5 0 0 0 0 0 0 0 0 0 0 0
4 2 2 2 2 3 10 12 7 3 6 22 4 10 0 0 1 0 1 0 0 0 0 0 0 1 1 1 24 1 3 11 19 27 6 0 4 10 2 3 7 4 5 6 2 2 1 1 1 1 1 1 2 1
13 6 6 9 5 12 5 1 0 0 0 1 2 0 0 0 0 0 0 0 0 1 0 0 1 0 0 2 0 0 0 0 22 0 0 1 10 10 5 6 5 4 5 5 5 6 5 4 4 3 3 3 2 1
9 14 21 17 11 5 0 0 0 0 0 0 2 0 6 0 0 0 0 1 1 0 1 1 0 0 0 6 0 1 0 0 0 0 6 11 8 7 6 6 4 4 3 2 2 2 1 2 2 1 2 1 0 1
15 19 15 6 2 0 0 0 0 0 0 0 0 0 0 0 1 1 1 1 0 1 1 1 0 0 0 0 0 0 0 0 0 0 4 7 8 9 8 7 3 2 2 2 1 1 0 0 0 0 0 0 0 0
7 6 0 0 0 0 0 0 0 0 0 0 0 0 0 2 2 2 2 0 0 3 1 0 0 0 0 0 0 0 0 0 2 1 8 3 7 4 4 5 2 1 0 0 0 0 0 0 0 0 0 0 0 0
0 2 0 0 0 0 0 0 0 0 0 0 0 0 0 0 0 0 0 0 0 0 0 0 0 1 2 0 0 0 0 1 0 1 3 2 1 0 1 1 0 0 0 0 0 0 0 0 0 0 0 0 0 0
1 3 0 0 0 0 0 0 0 1 0 0 1 0 0 1 0 2 1 1 1 0 1 1 0 1 3 2 3 6 0 0 0 0 0 0 0 0 0 0 0 1 0 1 3 3 1 0 0 0 1 2 2 1
4 0 0 0 0 1 0 5 2 0 0 2 0 3 2 0 0 2 5 0 0 0 0 7 0 0 0 0 1 1 0 0 0 1 0 0 0 0 1 0 1 1 1 1 1 0 0 1 2 2 2 5 2 2
2 0 0 0 0 8 1 7 0 0 8 10 0 0 4 0 0 0 0 0 0 0 0 0 0 0 0 0 0 0 0 0 0 0 0 0 2 3 2 1 1 0 2 3 3 2 2 2 1 1 1 0 0 0
0 0 0 0 0 0 1 1 6 0 8 6 0 0 1 0 2 0 0 0 0 1 0 0 0 0 0 0 0 3 3 6 2 0 1 1 1 1 1 2 3 2 0 0 0 0 0 0 0 0 0 0 0 0
0 0 0 0 0 0 0 1 4 1 6 9 2 13 0 0 0 0 0 0 0 4 2 0 0 0 0 0 0 0 0 0 0 0 2 2 4 3 1 1 0 0 0 0 0 0 0 0 0 0 0 0 0 0
0 0 0 0 0 0 0 0 9 9 3 3 2 8 5 1 0 0 0 0 3 1 1 0 0 0 4 3 3 2 1 1 0 0 0 0 0 0 0 0 0 0 0 0 0 0 0 0 0 0 0 0 0 0
0 0 0 0 0 0 0 0 0 1 0 1 0 0 1 1 2 0 0 0 7 1 1 3 6 8 4 2 0 1 1 1 0 0 0 0 0 0 0 0 0 0 0 0 0 0 0 0 0 0 0 0 0 0
0 0 0 0 0 0 0 0 0 0 0 0 0 0 0 0 0 0 2 5 0 0 4 7 0 0 0 0 0 0 0 0 0 0 0 0 0 0 0 0 0 0 0 0 0 0 0 0 0 0 0 0 0 0
0 0 0 0 0 0 0 0 0 0 0 0 0 1 0 0 2 0 2 2 0 0 0 0 1 0 0 0 0 0 0 0 0 0 0 0 0 0 0 0 0 0 0 0 0 0 0 0 0 0 0 0 0 0
0 0 0 1 0 0 0 0 0 0 1 1 1 1 0 0 0 1 4 0 0 0 0 0 0 0 0 0 0 0 0 0 0 0 0 0 0 0 0 0 0 0 0 0 0 0 0 0 0 0 0 0 0 0
0 1 3 0 0 0 0 0 0 0 0 0 2 0 0 0 0 0 0 0 0 0 0 0 0 0 0 0 0 0 0 0 0 0 0 0 0 0 0 0 0 0 0 0 0 0 0 0 0 0 0 0 0 0
0 0 0 0 0 0 0 0 0 0 0 0 0 0 0 0 0 0 0 0 0 0 0 0 0 0 0 0 0 0 0 0 0 0 0 0 0 0 0 0 0 0 0 0 0 0 0 0 0 0 0 0 0 0
0 0 0 0 0 0 0 0 0 0 0 0 0 0 0 1 0 0 0 0 0 0 0 0 0 0 0 0 0 0 0 0 0 0 0 0 0 0 0 0 0 0 0 0 0 1 0 0 0 0 0 0 0 0
1 0 0 0 0 0 0 0 2 0 0 0 0 0 0 0 0 0 1 2 0 0 0 0 0 0 0 0 0 0 0 0 0 0 0 0 0 0 0 0 0 0 0 0 0 0 0 0 0 0 0 0 0 0
0 0 0 0 0 0 0 0 0 0 0 0 0 0 0 0 0 0 0 0 0 0 0 0 0 0 0 0 0 0 0 0 0 0 0 0 0 0 0 0 0 0 0 0 0 0 0 0 0 0 0 0 0 0
0 0 0 0 0 0 0 0 4 0 0 0 0 0 0 0 0 0 0 0 1 0 0 0 0 0 0 0 0 0 0 0 0 0 0 0 0 0 0 0 0 0 0 0 0 0 0 0 0 0 0 0 0 0
0 0 0 0 0 0 0 1 0 4 0 0 0 0 0 0 0 0 0 0 0 0 0 0 0 0 0 0 0 0 0 0 0 0 0 0 0 0 0 0 0 0 0 0 0 0 0 0 0 0 0 0 0 0